Location: Costa Valle Imagna
(45.8000°N, 9.5000°E)
Time: 06:24:30
(UTC+00:00)

Cosmos 1000 Rocket - Pass Details

Date: 17 February 2020
Orbit: 954 x 991 km, 82.9° (Epoch: 28 March)

Event Time Altitude Azimuth Distance (km) Brightness Sun altitude
Rises 05:04:56 0° 190° (S) 3,623 7.4 -14.1°
Reaches altitude 10° 05:07:25 10° 191° (S) 2,684 6.7 -13.7°
Maximum altitude 05:13:34 80° 279° (W) 984 4.4 -12.6°
Drops below altitude 10° 05:19:49 10° 6° (N) 2,725 6.9 -11.5°
Sets 05:22:21 0° 8° (N) 3,682 7.6 -11.1°
